Voltar ao catálogo

STARLINK-3266

AtivoComunicaçõesVLEO
NORAD 50195·PAYLOAD·🇺🇸 United States

Lançado Dec 18, 2021 de Vandenberg Space Force Base

Loading…

Próximas Passagens (próximas 24 horas)

TLE

AtualizadoSource: CelesTrak SupGP

Época: Sep 14, 2026, 14:08 UTC

1 50195C 21125AR  26257.58937500  .00010632  00000+0  34183-3 0  2570
2 50195  53.1578 100.8464 0001324  94.5478 351.7325 15.31703909    16

Acompanhe STARLINK-3266 em tempo real com AllMySat

Download on the App Store